Location: Powder Track
(41.8531°N, 72.3584°W)
Time: 02:27:31
(UTC+00:00)

Tianhe-1 - Visible Passes

Search period start: 22 June 2021 00:00
Search period end: 02 July 2021 00:00
Orbit: 375 x 386 km, 41.5° (Epoch: 21 June)

Date Brightness Start Highest point End Pass type
(mag) Time Alt. Az. Time Alt. Az. Time Alt. Az.
22 Jun 2.8 07:01:21 22° SE 07:01:21 22° SE 07:03:13 10° E visible
22 Jun 1.1 08:33:56 10° WSW 08:37:04 72° S 08:40:13 10° E visible
23 Jun 1.2 07:35:06 35° SW 07:36:07 54° SSE 07:39:12 10° E visible
24 Jun 3.0 06:36:44 22° ESE 06:36:44 22° ESE 06:38:08 10° E visible
24 Jun 1.0 08:08:51 11° W 08:11:48 83° S 08:14:58 10° E visible
25 Jun 0.9 07:10:30 63° SW 07:10:49 71° S 07:13:58 10° E visible
26 Jun 3.6 06:12:13 16° E 06:12:13 16° E 06:12:57 10° E visible
26 Jun 0.9 07:44:19 18° W 07:46:34 86° S 07:49:43 10° E visible
27 Jun 1.4 06:46:08 56° E 06:46:08 56° E 06:48:43 10° E visible
27 Jun 1.0 08:19:10 10° W 08:22:17 64° SSW 08:25:25 10° ESE visible
28 Jun 0.9 07:20:12 36° W 07:21:19 80° S 07:24:28 10° E visible
29 Jun 3.2 06:22:24 19° E 06:22:24 19° E 06:23:28 10° E visible
29 Jun 1.3 07:54:33 14° W 07:56:59 47° SSW 08:00:01 10° ESE visible
30 Jun 2.1 06:57:10 35° ESE 06:57:10 35° ESE 06:59:09 10° ESE visible
30 Jun 2.4 08:30:03 10° WSW 08:32:29 21° SSW 08:34:54 10° SSE visible
01 Jul 2.3 07:32:38 26° SSE 07:32:38 26° SSE 07:34:30 10° SE visible
